{"data":{"norad_id":59355,"epoch":"2026-09-21T04:54:26.989920Z","epoch_age_seconds":101359,"freshness":"FRESH","line1":"1 59355U 24060H   26264.20447905  .00000235  00000+0  18066-4 0  9994","line2":"2 59355  43.0000 235.7459 0001220 262.6913  97.3800 15.27581698139962","mean_motion":15.27581698,"eccentricity":0.000122,"inclination_deg":43,"raan_deg":235.7459,"arg_perigee_deg":262.6913,"mean_anomaly_deg":97.38,"bstar":1.8066e-5,"rev_number":13996,"period_min":94.266643930425,"perigee_km":482.20694753809,"apogee_km":483.88107570493,"semimajor_km":6861.1810116215,"source":"CELESTRAK","updated_at":"2026-09-22T09:00:48.904301Z"}}